カタログに戻る

COSMOS 2251 DEB

運用中LEO
NORAD 35469·DEBRIS·🇷🇺 Russia

打ち上げ Jun 16, 1993 から Plesetsk Cosmodrome

Loading…

次のパス (今後24時間)

TLE

最新Source: Space-Track

元期: Sep 13, 2026, 06:20 UTC

1 35469U 93036ALP 26256.26424524  .00000270  00000-0  74639-4 0  9990
2 35469  74.0151 227.7548 0077778 314.3440  45.1362 14.50021949920903

AllMySatでCOSMOS 2251 DEBをリアルタイム追跡

Download on the App Store